Location: Costa Valle Imagna
(45.8000°N, 9.5000°E)
Time: 19:01:49
(UTC+00:00)

CZ-4B R/B - Pass Details

Date: 17 February 2020
Orbit: 486 x 652 km, 97.9° (Epoch: 05 April)

Event Time Altitude Azimuth Distance (km) Brightness Sun altitude
Rises 05:12:53 0° 359° (N) 2,659 6.3 -12.7°
Reaches altitude 10° 05:15:25 10° 343° (NNW) 1,740 5.2 -12.3°
Maximum altitude 05:18:10 20° 295° (WNW) 1,209 4.0 -11.8°
Enters shadow 05:19:14 18° 271° (W) 1,290 4.0 -11.6°
